Location: Nashville
(36.1660°N, 86.7840°W)
Time: 04:47:35
(UTC-06:00)

Courier 1B - All Passes

Search period start: 19 January 2022 00:00
Search period end: 29 January 2022 00:00
Orbit: 962 x 1209 km, 28.3° (Epoch: 19 January)

Date Brightness Start Highest point End Pass type
(mag) Time Alt. Az. Time Alt. Az. Time Alt. Az.
19 Jan - 00:05:23 10° WSW 00:12:28 45° S 00:19:09 10° ESE night (unlit)
19 Jan - 01:59:54 10° WSW 02:06:03 30° SSW 02:11:53 10° SE night (unlit)
19 Jan - 03:56:55 10° SW 03:59:10 12° SSW 04:01:24 10° S visible
19 Jan - 19:26:14 10° SSW 19:31:18 19° SSE 19:36:18 10° ESE visible
19 Jan - 21:17:51 10° SW 21:24:52 37° SSE 21:31:38 10° ESE visible
19 Jan - 23:11:25 10° WSW 23:18:40 47° S 23:25:33 10° ESE night (unlit)
20 Jan - 01:05:45 10° WSW 01:12:23 36° SSW 01:18:38 10° SE night (unlit)
20 Jan - 03:01:27 10° WSW 03:05:38 17° SSW 03:09:42 10° S visible
20 Jan - 18:33:49 10° S 18:37:35 14° SSE 18:41:20 10° ESE visible
20 Jan - 20:24:16 10° SW 20:31:03 32° SSE 20:37:41 10° ESE visible
20 Jan - 22:17:30 10° WSW 22:24:51 46° S 22:31:51 10° ESE night (unlit)
21 Jan - 00:11:40 10° WSW 00:18:39 41° S 00:25:15 10° SE night (unlit)
21 Jan - 02:06:46 10° WSW 02:12:04 22° SSW 02:17:09 10° SSE night (unlit)
21 Jan - 19:30:53 10° SSW 19:37:16 28° SSE 19:43:35 10° ESE visible
21 Jan - 21:23:39 10° WSW 21:31:00 44° S 21:38:05 10° ESE visible
21 Jan - 23:17:37 10° WSW 23:24:51 45° S 23:31:44 10° ESE night (unlit)
22 Jan - 01:12:22 10° WSW 01:18:26 27° SSW 01:24:13 10° SE night (unlit)
22 Jan - 18:37:44 10° SSW 18:43:30 23° SSE 18:49:17 10° ESE visible
22 Jan - 20:29:54 10° SW 20:37:08 41° SSE 20:44:14 10° ESE visible
22 Jan - 22:23:38 10° WSW 22:31:02 47° S 22:38:07 10° ESE night (unlit)
23 Jan - 00:18:07 10° WSW 00:24:45 33° SSW 00:31:03 10° SE night (unlit)
23 Jan - 02:14:34 10° WSW 02:17:59 14° SSW 02:21:20 10° S night (unlit)
23 Jan - 17:44:57 10° S 17:49:47 18° SSE 17:54:38 10° ESE visible
23 Jan - 19:36:16 10° SW 19:43:18 37° SSE 19:50:17 10° E visible
23 Jan - 21:29:42 10° WSW 21:37:09 48° S 21:44:24 10° ESE visible
23 Jan - 23:23:57 10° W 23:30:59 38° SSW 23:37:42 10° SE night (unlit)
24 Jan - 01:19:28 10° WSW 01:24:24 19° SSW 01:29:09 10° SSE night (unlit)
24 Jan - 16:52:53 10° S 16:56:05 13° SSE 16:59:20 10° SE daylight
24 Jan - 18:42:48 10° SW 18:49:28 32° SSE 18:56:13 10° ESE visible
24 Jan - 20:35:50 10° WSW 20:43:17 47° S 20:50:36 10° ESE visible
24 Jan - 22:29:54 10° WSW 22:37:11 43° S 22:44:12 10° ESE night (unlit)
25 Jan - 00:24:53 10° WSW 00:30:45 24° SSW 00:36:24 10° SSE night (unlit)
25 Jan - 17:49:32 10° SSW 17:55:42 26° SSE 18:01:58 10° ESE visible
25 Jan - 19:42:04 10° WSW 19:49:23 44° S 19:56:43 10° ESE visible
25 Jan - 21:35:54 10° WSW 21:43:20 46° S 21:50:34 10° ESE visible
25 Jan - 23:30:31 10° WSW 23:37:03 30° SSW 23:43:20 10° SE night (unlit)
26 Jan - 01:28:18 10° SW 01:30:16 11° SSW 01:32:13 10° SSW night (unlit)
26 Jan - 16:56:34 10° SSW 17:01:59 21° SSE 17:07:30 10° ESE daylight
26 Jan - 18:48:25 10° SW 18:55:31 40° SSE 19:02:45 10° E visible
26 Jan - 20:41:59 10° WSW 20:49:27 48° S 20:56:50 10° ESE visible
26 Jan - 22:36:19 10° W 22:43:16 35° SSW 22:50:01 10° SE night (unlit)
27 Jan - 00:32:22 10° WSW 00:36:40 16° SSW 00:40:51 10° S night (unlit)
27 Jan - 16:04:02 10° S 16:08:17 16° SSE 16:12:39 10° ESE daylight
27 Jan - 17:54:55 10° SW 18:01:42 35° SSE 18:08:40 10° E visible
27 Jan - 19:48:07 10° WSW 19:55:33 48° S 20:03:00 10° ESE visible
27 Jan - 21:42:14 10° W 21:49:27 40° SSW 21:56:32 10° SE visible
27 Jan - 23:37:30 10° WSW 23:42:59 21° SSW 23:48:21 10° SSE night (unlit)
28 Jan - 15:12:36 10° SSE 15:14:40 11° SSE 15:16:46 10° SE daylight
28 Jan - 17:01:35 10° SW 17:07:56 30° SSE 17:14:29 10° ESE daylight
28 Jan - 18:54:22 10° WSW 19:01:39 46° S 19:09:05 10° ESE visible
28 Jan - 20:48:15 10° WSW 20:55:35 44° S 21:02:54 10° ESE visible
28 Jan - 22:43:01 10° WSW 22:49:17 26° SSW 22:55:23 10° SSE night (unlit)
